When you browse on this site, cookies collect data to enhance your experience and personalize the content and advertising you see.
Visit our Privacy Policy to learn more. By continuing to use the site, you agree to this use of cookies and data.
  • In Hungary
  • List of Countries
  • For 7 days
  • Water Temperature
  • Weather Map
  • News
  • Weather Widgets
  • user-avatar
    Login

    Hourly Weather Krivovskoe

    Today, 24 January, Friday

    Time Temperature Precipitation Wind Pressure Humidity
    00:00 -13°C° 0 mm 3 mps 753 mmHg 90%
    01:00 -14°C° 0 mm 3 mps 754 mmHg 90%
    02:00 -14°C° 0 mm 3 mps 754 mmHg 90%
    03:00 -15°C° 0 mm 3 mps 754 mmHg 90%
    04:00 -15°C° 0 mm 3 mps 755 mmHg 91%
    05:00 -15°C° 0 mm 3 mps 756 mmHg 91%
    06:00 -15°C° 0 mm 3 mps 756 mmHg 92%
    07:00 -16°C° 0 mm 3 mps 757 mmHg 92%
    08:00 -16°C° 0 mm 3 mps 757 mmHg 92%
    09:00 -16°C° 0 mm 3 mps 758 mmHg 92%
    10:00 -15°C° 0 mm 3 mps 758 mmHg 91%
    11:00 -14°C° 0 mm 3 mps 758 mmHg 90%
    12:00 -14°C° 0 mm 4 mps 759 mmHg 90%
    13:00 -14°C° 0 mm 4 mps 759 mmHg 90%
    14:00 -14°C° 0 mm 4 mps 759 mmHg 90%
    15:00 -14°C° 0 mm 4 mps 758 mmHg 90%
    16:00 -14°C° 0 mm 4 mps 758 mmHg 90%
    17:00 -15°C° 0 mm 4 mps 758 mmHg 90%
    18:00 -15°C° 0 mm 4 mps 758 mmHg 90%
    19:00 -14°C° 0 mm 4 mps 757 mmHg 90%
    20:00 -12°C° 0 mm 5 mps 757 mmHg 90%
    21:00 -11°C° 0 mm 6 mps 756 mmHg 90%
    22:00 -10°C° 0.2 mm 6 mps 755 mmHg 90%
    23:00 -9°C° 0.2 mm 7 mps 754 mmHg 90%

    Tomorrow, 25 January, Saturday

    Time Temperature Precipitation Wind Pressure Humidity
    00:00 -10°C° 0.2 mm 8 mps 754 mmHg 90%
    01:00 -8°C° 0.5 mm 8 mps 753 mmHg 92%
    02:00 -8°C° 0.5 mm 8 mps 752 mmHg 93%
    03:00 -8°C° 0.5 mm 8 mps 751 mmHg 95%
    04:00 -7°C° 0.6 mm 8 mps 751 mmHg 94%
    05:00 -6°C° 0.6 mm 7 mps 750 mmHg 93%
    06:00 -4°C° 0.6 mm 7 mps 749 mmHg 93%
    07:00 -4°C° 0.1 mm 7 mps 749 mmHg 93%
    08:00 -3°C° 0.1 mm 6 mps 750 mmHg 92%
    09:00 -2°C° 0.1 mm 6 mps 750 mmHg 92%
    10:00 -2°C° 0 mm 6 mps 750 mmHg 94%
    11:00 -1°C° 0 mm 5 mps 749 mmHg 97%
    12:00 -1°C° 0 mm 5 mps 749 mmHg 99%
    13:00 0°C° 0.1 mm 5 mps 749 mmHg 99%
    14:00 -1°C° 0.1 mm 6 mps 749 mmHg 99%
    15:00 -1°C° 0.1 mm 6 mps 749 mmHg 99%
    16:00 -2°C° 0.1 mm 6 mps 749 mmHg 98%
    17:00 -2°C° 0.1 mm 6 mps 749 mmHg 98%
    18:00 -2°C° 0.1 mm 6 mps 748 mmHg 97%
    19:00 -2°C° 0.1 mm 6 mps 748 mmHg 97%
    20:00 -2°C° 0.1 mm 7 mps 747 mmHg 97%
    21:00 -2°C° 0.1 mm 8 mps 747 mmHg 97%
    22:00 -2°C° 0.1 mm 8 mps 746 mmHg 97%
    23:00 -2°C° 0.1 mm 8 mps 746 mmHg 97%

    Day after tomorrow, 26 January, Sunday

    Time Temperature Precipitation Wind Pressure Humidity
    00:00 -3°C° 0.1 mm 9 mps 745 mmHg 97%
    01:00 -2°C° 0.2 mm 8 mps 745 mmHg 92%
    02:00 -2°C° 0.2 mm 8 mps 745 mmHg 87%
    03:00 -4°C° 0.2 mm 8 mps 745 mmHg 83%
    04:00 -5°C° 0 mm 8 mps 746 mmHg 83%
    05:00 -6°C° 0 mm 7 mps 747 mmHg 83%
    06:00 -8°C° 0 mm 7 mps 747 mmHg 83%
    07:00 -7°C° 0 mm 8 mps 748 mmHg 83%
    08:00 -7°C° 0 mm 8 mps 748 mmHg 83%
    09:00 -7°C° 0 mm 8 mps 749 mmHg 83%
    10:00 -8°C° 0 mm 9 mps 750 mmHg 82%
    11:00 -6°C° 0 mm 9 mps 750 mmHg 81%
    12:00 -6°C° 0 mm 9 mps 751 mmHg 81%
    13:00 -6°C° 0 mm 9 mps 752 mmHg 81%
    14:00 -6°C° 0 mm 8 mps 753 mmHg 82%
    15:00 -6°C° 0 mm 7 mps 754 mmHg 83%
    16:00 -6°C° 0 mm 6 mps 755 mmHg 84%
    17:00 -8°C° 0 mm 6 mps 756 mmHg 84%
    18:00 -8°C° 0 mm 5 mps 757 mmHg 85%
    19:00 -8°C° 0 mm 5 mps 758 mmHg 86%
    20:00 -8°C° 0 mm 5 mps 758 mmHg 86%
    21:00 -10°C° 0 mm 5 mps 759 mmHg 87%
    22:00 -10°C° 0 mm 5 mps 759 mmHg 88%
    23:00 -10°C° 0 mm 4 mps 759 mmHg 89%

    27 January, Monday

    Time Temperature Precipitation Wind Pressure Humidity
    00:00 -10°C° 0 mm 4 mps 760 mmHg 90%
    01:00 -10°C° 0 mm 4 mps 759 mmHg 90%
    02:00 -9°C° 0 mm 4 mps 759 mmHg 90%
    03:00 -9°C° 0 mm 4 mps 759 mmHg 90%
    04:00 -8°C° 0 mm 5 mps 759 mmHg 90%
    05:00 -8°C° 0 mm 5 mps 758 mmHg 91%
    06:00 -8°C° 0 mm 6 mps 758 mmHg 92%
    07:00 -6°C° 0.1 mm 6 mps 757 mmHg 91%
    08:00 -6°C° 0.1 mm 6 mps 757 mmHg 90%
    09:00 -5°C° 0.1 mm 6 mps 757 mmHg 89%
    10:00 -4°C° 0 mm 6 mps 757 mmHg 89%
    11:00 -3°C° 0 mm 7 mps 757 mmHg 89%
    12:00 -2°C° 0 mm 7 mps 757 mmHg 89%
    13:00 -1°C° 0 mm 7 mps 757 mmHg 91%
    14:00 -1°C° 0 mm 7 mps 757 mmHg 92%
    15:00 -1°C° 0 mm 7 mps 757 mmHg 94%
    16:00 -1°C° 0 mm 6 mps 758 mmHg 94%
    17:00 -1°C° 0 mm 6 mps 758 mmHg 95%
    18:00 0°C° 0 mm 5 mps 759 mmHg 95%
    19:00 0°C° 0 mm 5 mps 759 mmHg 96%
    20:00 0°C° 0 mm 4 mps 760 mmHg 96%
    21:00 -1°C° 0 mm 4 mps 760 mmHg 97%
    22:00 -1°C° 0 mm 4 mps 760 mmHg 97%
    23:00 -1°C° 0 mm 4 mps 761 mmHg 98%

    28 January, Tuesday

    Time Temperature Precipitation Wind Pressure Humidity
    00:00 0°C° 0 mm 3 mps 761 mmHg 98%
    01:00 0°C° 0 mm 3 mps 761 mmHg 98%
    02:00 0°C° 0 mm 3 mps 761 mmHg 98%
    03:00 +1°C° 0 mm 2 mps 762 mmHg 97%
    04:00 -1°C° 0.4 mm 3 mps 762 mmHg 97%
    05:00 -2°C° 0.4 mm 3 mps 762 mmHg 97%
    06:00 -4°C° 0.4 mm 4 mps 763 mmHg 97%
    07:00 -5°C° 0.4 mm 4 mps 763 mmHg 96%
    08:00 -7°C° 0.4 mm 5 mps 763 mmHg 96%
    09:00 -7°C° 0.4 mm 5 mps 764 mmHg 95%
    10:00 -7°C° 0.1 mm 5 mps 764 mmHg 95%
    11:00 -7°C° 0.1 mm 5 mps 764 mmHg 95%
    12:00 -7°C° 0.1 mm 4 mps 764 mmHg 94%
    13:00 -7°C° 0.1 mm 4 mps 764 mmHg 94%
    14:00 -7°C° 0.1 mm 4 mps 764 mmHg 94%
    15:00 -7°C° 0.1 mm 4 mps 764 mmHg 94%
    16:00 -8°C° 0.1 mm 4 mps 764 mmHg 94%
    17:00 -8°C° 0.1 mm 4 mps 764 mmHg 94%
    18:00 -8°C° 0.1 mm 4 mps 765 mmHg 94%
    19:00 -8°C° 0.1 mm 4 mps 765 mmHg 94%
    20:00 -9°C° 0.1 mm 4 mps 765 mmHg 95%
    21:00 -9°C° 0.1 mm 4 mps 765 mmHg 95%
    22:00 -9°C° 0.1 mm 4 mps 765 mmHg 95%
    23:00 -9°C° 0.1 mm 4 mps 765 mmHg 95%

    29 January, Wednesday

    Time Temperature Precipitation Wind Pressure Humidity
    00:00 -10°C° 0.1 mm 4 mps 766 mmHg 95%
    01:00 -10°C° 0.1 mm 4 mps 766 mmHg 95%
    02:00 -10°C° 0.1 mm 4 mps 765 mmHg 95%
    03:00 -10°C° 0.1 mm 4 mps 765 mmHg 95%
    04:00 -10°C° 0.1 mm 4 mps 765 mmHg 95%
    05:00 -10°C° 0.1 mm 4 mps 765 mmHg 95%
    06:00 -10°C° 0.1 mm 4 mps 765 mmHg 95%
    07:00 -10°C° 0.1 mm 4 mps 766 mmHg 94%
    08:00 -9°C° 0.1 mm 4 mps 766 mmHg 94%
    09:00 -9°C° 0.1 mm 4 mps 766 mmHg 94%
    10:00 -9°C° 0.2 mm 4 mps 766 mmHg 95%
    11:00 -8°C° 0.2 mm 4 mps 766 mmHg 95%
    12:00 -8°C° 0.2 mm 4 mps 766 mmHg 95%
    13:00 -7°C° 0.3 mm 4 mps 765 mmHg 95%
    14:00 -7°C° 0.3 mm 4 mps 765 mmHg 95%
    15:00 -7°C° 0.3 mm 4 mps 764 mmHg 96%
    16:00 -7°C° 0.3 mm 5 mps 764 mmHg 95%
    17:00 -7°C° 0.3 mm 5 mps 764 mmHg 95%
    18:00 -7°C° 0.3 mm 5 mps 764 mmHg 95%
    19:00 -7°C° 0.4 mm 5 mps 764 mmHg 95%
    20:00 -7°C° 0.4 mm 5 mps 764 mmHg 95%
    21:00 -7°C° 0.4 mm 5 mps 763 mmHg 96%
    22:00 -5°C° 0.5 mm 5 mps 763 mmHg 96%
    23:00 -4°C° 0.5 mm 5 mps 763 mmHg 97%
    Show more